Satellite: ASTRA 1B
Catalog number: 21139
Epoch time:      103023.00000000
Element set:     158 
Inclination:        0.0122 deg
RA of node:       319.8851 deg
Eccentricity:    0.0002995
Arg of perigee:    65.1991 deg
Mean anomaly:     116.0459 deg
Mean motion:    1.00273184 rev/day
Decay rate:    1.2399E-006 rev/day^2
Epoch rev:            3192
Checksum:              241

Satellite: METEOSAT 5 (MO
Catalog number: 21140
Epoch time:      103030.86842619
Element set:     699 
Inclination:        5.5886 deg
RA of node:        70.0779 deg
Eccentricity:    0.0002689
Arg of perigee:   145.8566 deg
Mean anomaly:     289.1893 deg
Mean motion:    1.00269534 rev/day
Decay rate:    9.0000E-008 rev/day^2
Epoch rev:            4586
Checksum:              330

Satellite: NOAA 12
Catalog number: 21263
Epoch time:      103033.96692747
Element set:     959 
Inclination:       98.6241 deg
RA of node:        23.8604 deg
Eccentricity:    0.0013756
Arg of perigee:    67.5321 deg
Mean anomaly:     292.7314 deg
Mean motion:   14.25069033 rev/day
Decay rate:    2.8399E-006 rev/day^2
Epoch rev:           60899
Checksum:              336

Satellite: OSCAR 22 (UoSA
Catalog number: 21575
Epoch time:      103034.21207219
Element set:     716 
Inclination:       98.1391 deg
RA of node:        27.1092 deg
Eccentricity:    0.0007285
Arg of perigee:   172.1052 deg
Mean anomaly:     188.0254 deg
Mean motion:   14.39142391 rev/day
Decay rate:    2.7500E-006 rev/day^2
Epoch rev:           60607
Checksum:              282

Satellite: METEOR 3-5
Catalog number: 21655
Epoch time:      103033.94810534
Element set:     527 
Inclination:       82.5528 deg
RA of node:        49.8984 deg
Eccentricity:    0.0012364
Arg of perigee:   236.7811 deg
Mean anomaly:     123.2127 deg
Mean motion:   13.16978972 rev/day
Decay rate:    5.1000E-007 rev/day^2
Epoch rev:           55142
Checksum:              310

Satellite: UARS
Catalog number: 21701
Epoch time:      103033.79791035
Element set:     815 
Inclination:       56.9816 deg
RA of node:        95.8839 deg
Eccentricity:    0.0005121
Arg of perigee:   117.0088 deg
Mean anomaly:     243.1504 deg
Mean motion:   15.02822688 rev/day
Decay rate:    6.0399E-006 rev/day^2
Epoch rev:           62334
Checksum:              414

Satellite: EUTELSAT 2-F3
Catalog number: 21803
Epoch time:      103032.83724755
Element set:     514 
Inclination:        2.5569 deg
RA of node:        89.3217 deg
Eccentricity:    0.0002611
Arg of perigee:   252.8042 deg
Mean anomaly:     112.2879 deg
Mean motion:    1.00271909 rev/day
Decay rate:    1.1600E-006 rev/day^2
Epoch rev:            3683
Checksum:              271

Satellite: INMARSAT 2-F3
Catalog number: 21814
Epoch time:      103033.37241860
Element set:     608 
Inclination:        1.7134 deg
RA of node:        57.8159 deg
Eccentricity:    0.0002702
Arg of perigee:   271.3032 deg
Mean anomaly:     155.0243 deg
Mean motion:    1.00271075 rev/day
Decay rate:    1.0200E-006 rev/day^2
Epoch rev:            4073
Checksum:              231

Satellite: INMARSAT 2-F4
Catalog number: 21940
Epoch time:      103031.69489394
Element set:     567 
Inclination:        2.3651 deg
RA of node:        19.1621 deg
Eccentricity:    0.0001499
Arg of perigee:   302.0485 deg
Mean anomaly:     168.4151 deg
Mean motion:    1.00268330 rev/day
Decay rate:   -3.6300E-006 rev/day^2
Epoch rev:            3950
Checksum:              276

Satellite: EUTELSAT 2-F4
Catalog number: 22028
Epoch time:      103028.97057872
Element set:     324 
Inclination:        1.6660 deg
RA of node:        92.8484 deg
Eccentricity:    0.0005860
Arg of perigee:   216.6759 deg
Mean anomaly:     155.3765 deg
Mean motion:    1.00272003 rev/day
Decay rate:   -1.0600E-006 rev/day^2
Epoch rev:            3157
Checksum:              283

Satellite: OSCAR 23 (KITS
Catalog number: 22077
Epoch time:      103033.94116349
Element set:     227 
Inclination:       66.0801 deg
RA of node:       158.4517 deg
Eccentricity:    0.0015456
Arg of perigee:   278.2453 deg
Mean anomaly:      81.6812 deg
Mean motion:   12.86407968 rev/day
Decay rate:   -3.7000E-007 rev/day^2
Epoch rev:           49229
Checksum:              314

Satellite: ASTRA 1C
Catalog number: 22653
Epoch time:      103023.00000000
Element set:     784 
Inclination:        0.0122 deg
RA of node:       319.8851 deg
Eccentricity:    0.0002995
Arg of perigee:    65.1991 deg
Mean anomaly:     116.0096 deg
Mean motion:    1.00273184 rev/day
Decay rate:    1.2299E-006 rev/day^2
Epoch rev:            3062
Checksum:              240

Satellite: METEOR 2-21
Catalog number: 22782
Epoch time:      103034.49216652
Element set:     508 
Inclination:       82.5449 deg
RA of node:       226.8518 deg
Eccentricity:    0.0023075
Arg of perigee:    31.5245 deg
Mean anomaly:     328.7294 deg
Mean motion:   13.83531227 rev/day
Decay rate:    3.8999E-007 rev/day^2
Epoch rev:           47600
Checksum:              326

Satellite: KITSAT B
Catalog number: 22825
Epoch time:      103034.20761379
Element set:     477 
Inclination:       98.2758 deg
RA of node:        64.6861 deg
Eccentricity:    0.0007795
Arg of perigee:   310.1894 deg
Mean anomaly:      49.8606 deg
Mean motion:   14.28937013 rev/day
Decay rate:    1.2100E-006 rev/day^2
Epoch rev:           48768
Checksum:              436

Satellite: POSAT 1
Catalog number: 22826
Epoch time:      103033.61017956
Element set:     300 
Inclination:       98.2776 deg
RA of node:        65.2271 deg
Eccentricity:    0.0008640
Arg of perigee:   312.3737 deg
Mean anomaly:      47.6711 deg
Mean motion:   14.29159274 rev/day
Decay rate:    1.3699E-006 rev/day^2
Epoch rev:           48764
Checksum:              316

Satellite: ITAMSAT
Catalog number: 22828
Epoch time:      103033.59431594
Element set:     417 
Inclination:       98.2738 deg
RA of node:        65.4770 deg
Eccentricity:    0.0009336
Arg of perigee:   289.4873 deg
Mean anomaly:      70.5299 deg
Mean motion:   14.29502190 rev/day
Decay rate:    1.0400E-006 rev/day^2
Epoch rev:           45584
Checksum:              322

Satellite: EYESAT A
Catalog number: 22829
Epoch time:      103033.60639720
Element set:     440 
Inclination:       98.2757 deg
RA of node:        66.0858 deg
Eccentricity:    0.0009094
Arg of perigee:   289.5707 deg
Mean anomaly:      70.4491 deg
Mean motion:   14.29759290 rev/day
Decay rate:    1.9500E-006 rev/day^2
Epoch rev:           48777
Checksum:              340

Satellite: METEOSAT 6
Catalog number: 22912
Epoch time:      103033.84967808
Element set:     662 
Inclination:        2.6400 deg
RA of node:        82.5010 deg
Eccentricity:    0.0001379
Arg of perigee:   211.7757 deg
Mean anomaly:     153.7074 deg
Mean motion:    1.00277749 rev/day
Decay rate:    5.3999E-007 rev/day^2
Epoch rev:            3214
Checksum:              298

Satellite: GOES 8
Catalog number: 23051
Epoch time:      103034.42185608
Element set:     589 
Inclination:        0.2612 deg
RA of node:       103.5931 deg
Eccentricity:    0.0000934
Arg of perigee:   295.7641 deg
Mean anomaly:     170.4684 deg
Mean motion:    1.00281783 rev/day
Decay rate:   -2.5700E-006 rev/day^2
Epoch rev:            3965
Checksum:              398

Satellite: ASTRA 1D
Catalog number: 23331
Epoch time:      103033.83994802
Element set:     810 
Inclination:        0.0526 deg
RA of node:       223.2039 deg
Eccentricity:    0.0003712
Arg of perigee:    34.6058 deg
Mean anomaly:     201.3307 deg
Mean motion:    1.00273376 rev/day
Decay rate:    1.3100E-006 rev/day^2
Epoch rev:            3071
Checksum:              223

Satellite: RADIO ROSTO
Catalog number: 23439
Epoch time:      103033.50640412
Element set:     679 
Inclination:       64.8175 deg
RA of node:        67.4555 deg
Eccentricity:    0.0147166
Arg of perigee:   118.2324 deg
Mean anomaly:     243.3477 deg
Mean motion:   11.27548155 rev/day
Decay rate:   -4.1999E-007 rev/day^2
Epoch rev:           33378
Checksum:              323

Satellite: NOAA 14
Catalog number: 23455
Epoch time:      103033.96988699
Element set:     517 
Inclination:       99.1872 deg
RA of node:        52.1265 deg
Eccentricity:    0.0008605
Arg of perigee:   274.3654 deg
Mean anomaly:      85.6534 deg
Mean motion:   14.13290567 rev/day
Decay rate:    9.7999E-007 rev/day^2
Epoch rev:           41727
Checksum:              473

Satellite: HIMAWARI 5 (GM
Catalog number: 23522
Epoch time:      103033.73317705
Element set:     81 
Inclination:        1.7405 deg
RA of node:        83.9287 deg
Eccentricity:    0.0000441
Arg of perigee:    22.1377 deg
Mean anomaly:      70.2343 deg
Mean motion:    1.00262757 rev/day
Decay rate:   -2.9299E-006 rev/day^2
Epoch rev:            2873
Checksum:              277

Satellite: HOT BIRD 1
Catalog number: 23537
Epoch time:      103013.80550721
Element set:     533 
Inclination:        0.0070 deg
RA of node:       236.2796 deg
Eccentricity:    0.0008090
Arg of perigee:    86.9786 deg
Mean anomaly:      92.5958 deg
Mean motion:    1.00275871 rev/day
Decay rate:    1.0700E-006 rev/day^2
Epoch rev:            2861
Checksum:              279

Satellite: GOES 9
Catalog number: 23581
Epoch time:      103031.49884696
Element set:     498 
Inclination:        0.3154 deg
RA of node:       277.7072 deg
Eccentricity:    0.0012790
Arg of perigee:   253.4411 deg
Mean anomaly:     356.2791 deg
Mean motion:    1.00049027 rev/day
Decay rate:    1.1500E-006 rev/day^2
Epoch rev:            2818
Checksum:              290

